Regional Weather Roundup
Issued by NWS Cleveland, OH

Home | Current Version | Previous Version | Graphics & Text | Print | Product List | Glossary On
Versions: 1 2 3 4 5 6 7 8 9 10 11 12 13 14 15 16 17 18 19 20 21 22 23 24 25 26 27 28 29 30 31 32 33 34 35 36 37 38 39 40 41 42 43 44 45 46 47 48 49 50
000
ASUS41 KCLE 232000
RWRCLE
OHIO REGIONAL WEATHER ROUNDUP
NATIONAL WEATHER SERVICE WILMINGTON, OH
400 PM EDT TUE SEP 23 2014

NOTE: "FAIR" INDICATES FEW OR NO CLOUDS BELOW 12,000 FEET WITH NO
SIGNIFICANT WEATHER AND/OR OBSTRUCTIONS TO VISIBILITY.

OHZ001>008-015>018-024>027-034-035-043-044-232100-
   NORTHWEST OHIO

CITY           SKY/WX    TMP DP  RH WIND       PRES   REMARKS
DEFIANCE       SUNNY    N/A N/A N/A CALM      30.33F
FINDLAY        SUNNY     73  45  36 CALM      30.32F
TOLEDO EXPRESS SUNNY     70  45  40 VRB3      30.33F
TOLEDO METCALF SUNNY     70  45  40 CALM      30.33F
LIMA           SUNNY     70  45  40 CALM      30.33F
$$

OHZ009>014-019>023-028>033-038-089-232100-
   NORTHEAST OHIO

CITY           SKY/WX    TMP DP  RH WIND       PRES   REMARKS
CLE-HOPKINS    SUNNY     68  46  45 W7        30.35F
CLE-LAKEFRONT  SUNNY     65  51  60 NW8       30.34S
CUY CO. ARPT   SUNNY     68  52  56 N10       30.35S
LORAIN-ELYRIA  SUNNY     70  47  43 S3        30.34F
ASHTABULA      SUNNY     68  46  45 W5        30.35F
AKRON-CANTON   SUNNY     69  41  36 NW3       30.35F
WOOSTER        NOT AVBL
MANSFIELD      SUNNY     68  44  42 CALM      30.34F
YOUNGSTOWN     SUNNY     67  45  45 CALM      30.35F
$$

OHZ042-051>053-060>062-070>072-077>081-232100-
  SOUTHWEST OHIO

CITY           SKY/WX    TMP DP  RH WIND       PRES   REMARKS
CINC-COVINGTON SUNNY     71  42  35 CALM      30.30F
CINC-LUNKEN    SUNNY     73  44  35 NE3       30.30F
HAMILTON       SUNNY     72  45  37 CALM      30.32F
DAYTON         NOT AVBL
WRIGHT-PAT AFB SUNNY     71  43  36 CALM      30.31F
DAYTON GENERAL SUNNY     70  46  42 CALM      30.31F
WILMINGTON     SUNNY     70  39  32 CALM      30.31F
$$

OHZ036-037-039>041-045>050-054>059-063>069-073>076-082>088-232100-
  CENTRAL AND SOUTHEAST OHIO

CITY           SKY/WX    TMP DP  RH WIND       PRES   REMARKS
COLUMBUS       SUNNY     72  39  30 CALM      30.32F
OSU AIRPORT    SUNNY     71  42  35 N6        30.32F
BOLTON FIELD   NOT AVBL
RICKENBACK AFB NOT AVBL
NEWARK         SUNNY     70  37  29 CALM      30.32F
MARION         SUNNY     71  43  36 E3        30.33F
LANCASTER      SUNNY     71  40  32 E7        30.32F
ZANESVILLE     SUNNY     70  41  34 VRB7      30.32F
NEW PHILLY     SUNNY     68  42  38 SW3       30.35F
$$



USA.gov is the U.S. government's official web portal to all federal, state and local government web resources and services.